loading
DOY 175 | 2024-06-23T12:15:28Z

OPS 5798 DEB, 901

Orbit data source: Space-Track

OPS 5798 DEB, 901 is space debris in LEO originally from a launch on Tue, 06 Oct 1964 UTC launched from the Air Force Western Test Range (AFWTR). Debris objects in space refer to the collection of defunct objects orbiting the Earth. Examples of debris include non-operational satellites, rocket bodies, and fragments generated from explosions, collisions, or faulty payload assembly.

Loading next visibility...
Loading greatness...
OPS 5798 DEB details
NORAD ID901
COSPAR ID
1964-063D
Orbit
LEO
Last TLE update8 hours ago
Origin
Flag of USUSN BuWeps (US)
ManufacturerNAFI?
BusUnknown
MotorUnknown
Mass~20 kg wet, ~20 kg dry
Launch date (UTC)
1964-10-06 (60 years ago)
Launch vehicleUnknown
Launch site
Air Force Western Test Range (AFWTR)
Object type
Payload
Rocket body
Debris
Radar Cross Section1.3 m², Large (>1 m²)
Predictive object data (real-time)
Latitude16.74986°
Longitude85.80843°
Altitude1,047.31 km
Speed7.334 km/s
Apparent Right ascension06h 40m 30s
Apparent Declination-15° 28' 44"
Sunlit
Object is in daylight
Predictive observer data (real-time)
Local Sidereal Time23:23:37
Azimuth90.07° ESE
Elevation-24.494°
Doppler factor1
Orbital elements
Apogee1,067.234 km
Perigee1,035.242 km
Semi-major axis7,429.375 km
Eccentricity0.0021531
Inclination90.2212°
RAAN59.6169°
Arg. of periapsis72.6747°
True anomaly93.30314°
Mean anomaly93.0568°
Mean motion3.38934 °/min
BSTAR0.00012631
Period106.22 mins
Definitive object data (Epoch: 2024-06-23T04:07:42.009Z)
Latitude13.99002°
Longitude-94.07813°
Altitude1,057.315 km
Speed7.324 km/s
True Right ascension15h 58m 41s
True Declination13° 54' 46"
Sunlit
Object was in full shadow at TLE epoch
TLE from 8 hours ago
0 OPS 5798 DEB
1   901U 64063D   24175.17201400  .00000096  00000-0  12631-3 0  9994
2   901  90.2212  59.6169 0021531  72.6747  93.0568 13.54924532948795
Epoch: 2024-06-23T04:07Z
No data available

OPS 5798 DEB Visibility forecast

Observer location: 39.9160978°, -105.1181434, 0m alt.

OPS 5798 DEB is not visible in the next 10 days
Span
Click to sort rows by Start time (UTC) header in descending order
Start Az.
Max El. time (UTC)
Max El. Az.
Max El.
End time (UTC)
End Az.